Regional Weather Roundup
Issued by NWS

Home | Current Version | Previous Version | Graphics & Text | Print | Product List | Glossary On
Versions: 1 2 3 4 5 6 7 8 9 10 11 12 13 14 15 16 17 18 19 20 21 22 23 24 25 26 27 28
000
ASUS45 KBOI 222110
RWRID

IDAHO REGIONAL WEATHER ROUNDUP
NATIONAL WEATHER SERVICE BOISE ID
300 PM MDT TUE AUG 22 2017

NOTE: "FAIR" INDICATES FEW OR NO CLOUDS BELOW 12000 FEET
WITH NO SIGNIFICANT WEATHER AND/OR OBSTRUCTIONS TO VISIBILITY

IDZ012-014-222200-
SOUTHWEST IDAHO


CITY           SKY/WX    TMP DP  RH WIND       PRES   REMARKS
BOISE          SUNNY     91  43  18 N6        30.07F
CALDWELL       SUNNY     88  47  24 VRB3      30.06F
MOUNTAIN HOME  SUNNY     90  33  13 SW3       30.07F
$$

IDZ016-017-222200-
SOUTHCENTRAL IDAHO


CITY           SKY/WX    TMP DP  RH WIND       PRES   REMARKS
BURLEY         SUNNY     87  37  17 VRB5      30.13F
JEROME         SUNNY     87  36  16 NW3       30.14F
TWIN FALLS     SUNNY     89  43  20 N6        30.14F
$$

IDZ019>023-222200-
SOUTHEAST IDAHO


CITY           SKY/WX    TMP DP  RH WIND       PRES   REMARKS
IDAHO FALLS    SUNNY     86  31  13 S8        30.19F
POCATELLO      MOSUNNY   90  30  11 VRB6      30.18F
REXBURG        SUNNY     84  31  14 W6        30.20F
$$

IDZ006-010-011-018-031-032-222200-
CENTRAL IDAHO MOUNTAINS


CITY           SKY/WX    TMP DP  RH WIND       PRES   REMARKS
MCCALL         SUNNY     83  36  18 S7        30.20F
HAILEY         MOSUNNY   82  41  23 SE7       30.23F
STANLEY          N/A     83  20   9 W9        30.29F
SALMON         SUNNY     84  39  20 NW3       30.12F
CHALLIS        SUNNY     87  27  11 E5        30.16F
$$

IDZ002-004-006-007-026-222200-
NORTHERN IDAHO


CITY           SKY/WX    TMP DP  RH WIND       PRES   REMARKS
LEWISTON       SUNNY     90  44  20 VRB3      29.98F
LOWELL           N/A     90  47  22 CALM      29.98F
COEUR D`ALENE  SUNNY     88  42  20 CALM      30.04F
MULLAN PASS    SUNNY     78  35  21 CALM      30.26S
$$




USA.gov is the U.S. government's official web portal to all federal, state and local government web resources and services.